EW8735 Weather Reports


Display with metric or nautical units.
time (UTC)temp
F
wind
direction
speed
MPH
gust
MPH
rain 1hr
in
rain 24hr
in
rain mn
in
humidity
%
barometer
mb
20260831110027 48 280 0.0 0.0 0.00 0.00 0.00 61 1011.3
20260831104531 48 281 0.0 0.0 0.00 0.00 0.00 60 1011.3
20260831103024 48 280 0.0 0.0 0.00 0.00 0.00 60 1011.4
20260831101522 49 281 0.0 0.0 0.00 0.00 0.00 58 1011.5
20260831100018 50 280 0.0 0.0 0.00 0.00 0.00 61 1011.6
20260831094532 51 280 0.0 0.0 0.00 0.00 0.00 60 1011.6
20260831093022 51 280 0.0 0.0 0.00 0.00 0.00 57 1011.7
20260831091520 51 280 0.0 0.0 0.00 0.00 0.00 56 1011.9
20260831090011 51 280 0.0 0.0 0.00 0.00 0.00 58 1012.1
20260831084530 51 280 0.0 0.0 0.00 0.00 0.00 57 1012.2
20260831083009 51 281 0.0 0.0 0.00 0.00 0.00 56 1012.2
20260831081506 52 280 0.0 0.0 0.00 0.00 0.00 56 1012.2
20260831080014 52 280 0.0 0.0 0.00 0.00 0.00 56 1012.2
20260831074508 52 280 0.0 0.0 0.00 0.00 0.00 56 1012.2
20260831073002 53 280 0.0 0.0 0.00 0.00 0.00 56 1012.3
20260831071611 53 280 0.0 0.0 0.00 0.00 0.00 55 1012.4
20260831070059 53 280 0.0 0.0 0.00 0.00 0.00 55 1012.4
20260831064600 53 280 0.0 0.0 0.00 0.00 0.00 54 1012.3
20260831063110 53 280 0.0 0.0 0.00 0.00 0.00 53 1012.4
20260831061557 54 280 0.0 0.0 0.00 0.00 0.00 53 1012.4
20260831060056 54 280 0.0 0.0 0.00 0.00 0.00 53 1012.4
20260831054556 55 280 0.0 0.0 0.00 0.00 0.00 50 1012.4
20260831053101 56 280 0.0 0.0 0.00 0.00 0.00 48 1012.4
20260831051557 58 280 0.0 0.0 0.00 0.00 0.00 48 1012.5
20260831050055 59 280 0.0 0.0 0.00 0.00 0.00 45 1012.4
20260831044555 59 280 0.0 0.0 0.00 0.00 0.00 46 1012.4
20260831043054 59 280 0.0 0.0 0.00 0.00 0.00 46 1012.6
20260831041554 59 280 0.0 0.0 0.00 0.00 0.00 45 1012.6
20260831040053 59 280 0.0 0.0 0.00 0.00 0.00 44 1012.6
20260831034602 60 280 0.0 0.0 0.00 0.00 0.00 44 1012.5
20260831033059 61 281 0.0 0.0 0.00 0.00 0.00 42 1012.5
20260831031552 63 280 0.0 0.0 0.00 0.00 0.00 39 1012.3
20260831030054 65 280 0.0 0.0 0.00 0.00 0.00 37 1012.3
20260831024558 69 280 0.0 0.0 0.00 0.00 0.00 36 1012.1
20260831023051 71 280 0.0 0.0 0.00 0.00 0.00 34 1012.1
20260831021551 73 281 0.0 0.0 0.00 0.00 0.00 33 1012.0
20260831020050 74 288 0.0 0.0 0.00 0.00 0.00 31 1012.0
20260831014550 75 289 0.0 0.0 0.00 0.00 0.00 31 1012.0
20260831013049 77 289 0.0 0.0 0.00 0.00 0.00 28 1012.0
20260831011555 77 289 0.0 0.0 0.00 0.00 0.00 29 1012.0
20260831010056 77 287 0.0 0.0 0.00 0.00 0.00 28 1012.0
20260831004547 77 285 0.0 0.0 0.00 0.00 0.00 29 1012.1
20260831003049 78 278 0.0 0.0 0.00 0.00 0.00 28 1012.1
20260831001544 78 278 0.0 0.0 0.00 0.00 0.00 29 1012.1
20260831000044 77 278 0.0 0.0 0.00 0.00 0.00 30 1012.3
20260830234544 77 278 0.0 0.0 0.00 0.00 0.00 29 1012.4
20260830233041 78 277 0.0 0.0 0.00 0.00 0.00 28 1012.6
20260830231538 76 277 0.0 0.0 0.00 0.00 0.00 28 1012.6
20260830230038 76 277 0.0 0.0 0.00 0.00 0.00 29 1012.6
20260830224536 76 278 0.0 0.0 0.00 0.00 0.00 30 1012.9
20260830223035 76 277 0.0 0.0 0.00 0.00 0.00 29 1012.9
20260830221536 76 257 0.0 0.0 0.00 0.00 0.00 29 1013.1
20260830220032 76 251 0.0 0.0 0.00 0.00 0.00 31 1013.4
20260830214527 74 251 0.0 0.0 0.00 0.00 0.00 31 1013.6
20260830213025 75 251 0.0 0.0 0.00 0.00 0.00 30 1013.8
20260830211523 75 250 0.0 0.0 0.00 0.00 0.00 32 1013.9
20260830210018 73 248 0.0 0.0 0.00 0.00 0.00 33 1014.1
20260830204516 72 252 0.0 0.0 0.00 0.00 0.00 34 1014.3
20260830203014 71 252 0.0 0.0 0.00 0.00 0.00 36 1014.4
20260830201512 71 252 0.0 0.0 0.00 0.00 0.00 37 1014.6
20260830200013 71 251 0.0 0.0 0.00 0.00 0.00 35 1014.7
20260830194510 72 251 0.0 0.0 0.00 0.00 0.00 35 1014.8
20260830193007 71 266 0.0 0.0 0.00 0.00 0.00 37 1015.0
20260830191504 68 266 0.0 0.0 0.00 0.00 0.00 41 1015.1
20260830190005 68 268 0.0 0.0 0.00 0.00 0.00 39 1015.3
20260830184504 69 279 0.0 0.0 0.00 0.00 0.00 38 1015.5
20260830183002 69 279 0.0 0.0 0.00 0.00 0.00 38 1015.7
20260830181559 67 279 0.0 0.0 0.00 0.00 0.00 43 1015.7
20260830180056 66 220 0.0 0.0 0.00 0.00 0.00 42 1015.6
20260830174605 64 229 0.0 0.0 0.00 0.00 0.00 42 1016.0
20260830173053 64 229 0.0 0.0 0.00 0.00 0.00 44 1016.1
20260830171557 64 229 0.0 0.0 0.00 0.00 0.00 43 1016.1
20260830170050 64 229 0.0 0.0 0.00 0.00 0.00 44 1016.4
20260830164547 62 229 0.0 0.0 0.00 0.00 0.00 48 1016.5
20260830163050 61 229 0.0 0.0 0.00 0.00 0.00 49 1016.6
20260830161544 60 229 0.0 0.0 0.00 0.00 0.00 49 1016.6
20260830160055 60 206 0.0 0.0 0.00 0.00 0.00 50 1016.7
20260830154535 59 199 0.0 0.0 0.00 0.00 0.00 51 1016.7
20260830153032 58 214 0.0 0.0 0.00 0.00 0.00 51 1016.7
20260830151531 58 262 0.0 0.0 0.00 0.00 0.00 52 1016.7
20260830150028 56 317 0.0 0.0 0.00 0.00 0.00 58 1016.8
20260830144528 53 169 0.0 0.0 0.00 0.00 0.00 63 1016.8
20260830143027 51 168 0.0 0.0 0.00 0.00 0.00 67 1016.7
20260830141533 49 166 0.0 0.0 0.00 0.00 0.00 69 1016.7
20260830140023 47 191 0.0 0.0 0.00 0.00 0.00 71 1016.5
20260830134533 46 190 0.0 0.0 0.00 0.00 0.00 74 1016.4
20260830133023 45 192 0.0 0.0 0.00 0.00 0.00 75 1016.4
20260830131523 45 191 0.0 0.0 0.00 0.00 0.00 73 1016.3
20260830130017 45 195 0.0 0.0 0.00 0.00 0.00 74 1016.1
20260830124515 45 195 0.0 0.0 0.00 0.00 0.00 72 1016.1
20260830123011 47 195 0.0 0.0 0.00 0.00 0.00 69 1016.1
20260830121527 48 195 0.0 0.0 0.00 0.00 0.00 69 1016.0
20260830120009 49 195 0.0 0.0 0.00 0.00 0.00 69 1016.0
20260830114510 48 195 0.0 0.0 0.00 0.00 0.00 70 1016.1
20260830113005 48 195 0.0 0.0 0.00 0.00 0.00 70 1015.9
20260830111504 49 195 0.0 0.0 0.00 0.00 0.00 68 1015.6